Flag for Switzerland Weather past 2 weeks in Liestal, Basel-Land, Switzerland

Now
81 °F

Scattered clouds.


Feels Like: 81 °F
Forecast: 56 / 83 °F
Wind: 3 mph from North

Location: Bale-Mulhouse

Current Time: Aug 1, 2014 at 5:58:50 PM

Latest Report: Aug 1, 2014 at 5:30 PM


Visibility: N/A

Pressure: 29.80 "Hg

Humidity: 51%

Dew point: 61 °F

Location of LiestalLocation

Historic Weather in Liestal — Graph

°F

Liestal temperature yesterday

Maximum temperature yesterday: 77 °F (at 4:00 PM)
Minimum temperature yesterday: 61 °F (at 5:30 AM)
Average temperature yesterday: 68 °F

Past Weeks' High & Low Weather Summary

 TemperatureHumidityPressure
High93 °F (Jul 18, 4:35 PM)100% (Jul 18, 6:00 AM)30.12 "Hg (Jul 18, 6:00 AM)
Low55 °F (Jul 25, 5:30 AM)20% (Jul 18, 5:00 PM)29.80 "Hg (Jul 29, 4:00 PM)
Average68 °F80%29.93 "Hg
* Reported Jul 17 4:00 PM — Aug 1 4:30 PM, Liestal, Weather by CustomWeather, © 2014

Note: Actual official high and low records may vary slightly from our data, if they occured in-between our weather recording intervals... More about our weather records

Advertising

Liestal weather history for previous 24 hours

 ConditionsComfort  
Time TempWeatherWind HumidityBarometerVisibility
4:30 PM
Aug 1
81 °FScattered clouds.5 mph54%29.80 "HgN/A
4:00 PM81 °FPassing clouds.5 mph54%29.80 "HgN/A
3:30 PM81 °FPassing clouds.3 mph58%29.83 "HgN/A
3:00 PM81 °FPassing clouds.2 mph51%29.83 "HgN/A
2:30 PM79 °FPassing clouds.3 mph54%29.83 "HgN/A
2:00 PM79 °FPassing clouds.2 mph51%29.83 "HgN/A
1:30 PM77 °FPassing clouds.2 mph57%29.86 "HgN/A
1:00 PM77 °FPassing clouds.2 mph57%29.86 "HgN/A
12:30 PM77 °FPassing clouds.2 mph54%29.86 "HgN/A
12:00 PM75 °FScattered clouds.3 mph57%29.86 "HgN/A
11:30 AM73 °FPartly sunny.3 mph61%29.89 "HgN/A
11:00 AM72 °FPartly sunny.5 mph61%29.89 "HgN/A
10:30 AM70 °FSunny.2 mph73%29.89 "Hg10 mi
10:00 AM70 °FPassing clouds.3 mph78%29.89 "HgN/A
9:30 AM68 °FPartly sunny.3 mph78%29.89 "HgN/A
9:00 AM66 °FPartly sunny.5 mph83%29.89 "Hg5 mi
8:30 AM64 °FPartly sunny.3 mph88%29.89 "Hg4 mi
8:00 AM63 °FPartly sunny.3 mph94%29.89 "Hg4 mi
7:30 AM59 °FPartly sunny.2 mph94%29.89 "Hg4 mi
7:00 AM57 °FPassing clouds.2 mph94%29.89 "Hg4 mi
6:30 AM57 °FFog.3 mph94%29.89 "Hg3 mi
6:00 AM57 °FFog.No wind94%29.92 "Hg3 mi
5:30 AM55 °FFog.2 mph100%29.92 "Hg3 mi
5:00 AM57 °FFog.1 mph94%29.92 "Hg4 mi
4:30 AM57 °FCool.2 mph100%29.92 "Hg5 mi
4:00 AM57 °FPassing clouds.1 mph100%29.92 "Hg5 mi
3:30 AM57 °FPassing clouds.1 mph100%29.92 "Hg4 mi
3:00 AM59 °FClear.2 mph94%29.92 "Hg4 mi
2:30 AM59 °FClear.No wind94%29.92 "Hg5 mi
2:00 AM61 °FClear.2 mph94%29.92 "Hg5 mi
1:30 AM61 °FClear.No wind94%29.92 "Hg6 mi
1:00 AM61 °FPassing clouds.No wind94%29.92 "HgN/A
12:30 AM63 °FPassing clouds.3 mph94%29.92 "HgN/A
12:00 AM64 °FPassing clouds.3 mph88%29.95 "HgN/A
11:30 PM
Jul 31
64 °FPassing clouds.3 mph88%29.92 "HgN/A
11:00 PM64 °FPassing clouds.3 mph88%29.92 "HgN/A
10:30 PM66 °FPartly cloudy.3 mph83%29.92 "HgN/A
10:00 PM66 °FPartly sunny.5 mph83%29.92 "HgN/A
9:30 PM66 °FSunny.5 mph83%29.92 "Hg10 mi
9:00 PM70 °FPassing clouds.6 mph73%29.92 "HgN/A
8:30 PM72 °FPassing clouds.6 mph69%29.92 "HgN/A
8:00 PM73 °FPassing clouds.7 mph65%29.92 "HgN/A
7:30 PM75 °FPassing clouds.7 mph61%29.92 "HgN/A
7:00 PM75 °FPassing clouds.8 mph57%29.92 "HgN/A
6:30 PM77 °FPassing clouds.7 mph57%29.92 "HgN/A
6:00 PM77 °FPassing clouds.7 mph57%29.92 "HgN/A
5:30 PM77 °FPassing clouds.7 mph54%29.95 "HgN/A
5:00 PM77 °FPassing clouds.7 mph57%29.95 "HgN/A
Weather by CustomWeather, © 2014

See weather overviewHow to use our weather pages